FENGYUN 1C DEB, 36680

Orbit data source: Space-Track

FENGYUN 1C DEB, 36680 is space debris in SSO originally from a launch on Mon, 10 May 1999 UTC launched from the Taiyaun Space Center, China (TSC). Fengyun 1C debris stems from the Chinese weather satellite Fengyun-1C, which was intentionally destroyed by a Chinese anti-satellite missile in 2007. This event dramatically increased the amount of space debris, with thousands of trackable fragments posing hazards to satellites and human spaceflight. The Fengyun 1C debris cloud has become a focal point in discussions about space sustainability and the need for international regulations to prevent the creation of new debris.

Loading next visibility...
Identifier
36680, 1999-025DZA
Orbit
SSO
Country
Flag of CNCN / PRC
Related business
Manufacturer
Unknown
Mission
Spacecraft
Bus & Motor
Unknown
Mass
Unknown
Launch date (UTC)
1999-05-10 (27 years ago)
Launch vehicle
Unknown
Launch site
Taiyaun Space Center, China (TSC)
Object type
Payload
Rocket body
Debris
Shape & HBR
Unknown shape, 0.1 m
Radar Cross Section
Small (<0.1 m²)

Expand to show TLE details & history
Last TLE update: 2 days ago

TLE from 2 days ago
0 FENGYUN 1C DEB
1 36680U 99025DZA 26206.24530697  .00000934  00000-0  39302-3 0  9996
2 36680  98.5621 195.7500 0187490 320.9222  50.7199 14.19143738674810
Epoch: 2026-07-25T05:53Z
TLE epoch observation values (Epoch: 2026-07-25T05:53:14.522Z)
Latitude
13.14314°
Longitude
162.47525°
Altitude
746.407 km
Speed
7.526 km/s
True Right ascension
12h 54m 59s
True Declination
13° 04' 01"
Sunlit
Object was in daylight at epoch
Visualization orbit readout
Latitude
Unknown
Longitude
Unknown
Altitude
Unknown
Speed
Unknown
Apparent Right ascension
Unknown
Apparent Declination
Unknown
Sunlit
N/A
Visualization observer readout
Local Sidereal Time
01:09:46
Azimuth
Unknown
Elevation
Unknown
Doppler factor
Unknown
Orbital elements
Apogee altitude
960.46 km
Perigee altitude
690.342 km
Semi-major axis
7,203.538 km
Eccentricity
0.01875
Inclination
98.5621°
RAAN
195.75°
Arg. of periapsis
320.9222°
True anomaly
52.40774°
Mean anomaly
50.7199°
Eccentric anomaly
51.56132°
Mean motion
3.54997 °/min
Orbital period
101.41 mins
BSTAR
0.00039302
Loading maneuver chart data...
Computing Atmospheric mass density...

Documentation

Showing up to 5 results
|